Olathe, KS

6:00 AM CDT on July 22, 2017 (GMT -0500)
Johnson County Executive

Weather History for KOJC - January, 2012

Change the Weather History Date:

Sunday, January 22, 2012

  Actual Average Record
Temperature  
Mean Temperature 42 °F 30 °F  
Max Temperature 58 °F 39 °F 69 °F (1964)
Min Temperature 26 °F 21 °F -4 °F (1959)
Degree Days  
Heating Degree Days 23 35  
Month to date heating degree days 666 770  
Since 1 July heating degree days 2414 2735  
Cooling Degree Days 0 0  
Month to date cooling degree days 0 0  
Year to date cooling degree days 0 0  
Moisture  
Dew Point 37 °F    
Average Humidity 81    
Maximum Humidity 100    
Minimum Humidity 62    
Precipitation  
Precipitation 0.00 in 0.04 in 0.65 in (1958)
Month to date precipitation 0.01 0.70  
Year to date precipitation 0.01 0.70  
Sea Level Pressure  
Sea Level Pressure 29.53 in    
Wind  
Wind Speed 16 mph (South)    
Max Wind Speed 25 mph    
Max Gust Speed 36 mph    
Visibility 6 miles    
Events Rain , Thunderstorm    
T = Trace of Precipitation, MM = Missing Value Source: NWS Daily Summary

Daily Weather History Graph

Daily Weather History Graph

Search for Another Location

Airport or City:

Trip Planner

Search our weather history database for the weather conditions in past years. The results will help you decide how hot, cold, wet, or windy it might be!

Date:

Astronomy

Jan. 22, 2012 Rise Set
Actual Time 7:32 AM CST 5:28 PM CST
Civil Twilight 7:04 AM CST 5:57 PM CST
Nautical Twilight 6:31 AM CST 6:29 PM CST
Astronomical Twilight 5:59 AM CST 7:01 PM CST
Moon 6:50 AM CST 5:11 PM CST
Length of Visible Light 10h 53m
Length of Day
9h 55m
Waning Crescent, 0% of the Moon is Illuminated
Jan 22
Waning Crescent
Jan 23
New
Jan 30
First Quarter
Feb 7
Full
Feb 14
Last Quarter

Hourly Weather History & Observations

Time (CST) Temp. Windchill Dew Point Humidity Pressure Visibility Wind Dir Wind Speed Gust Speed Precip Events Conditions
12:53 AM 27.0 °F 14.7 °F 24.1 °F 89% 29.78 in 7.0 mi SSE 16.1 mph - N/A   Clear
1:53 AM 28.0 °F 15.3 °F 24.1 °F 85% 29.75 in 7.0 mi SSE 18.4 mph 24.2 mph N/A   Scattered Clouds
2:03 AM 28.4 °F 16.2 °F 24.8 °F 86% 29.70 in 7.0 mi SSE 17.3 mph - N/A   Mostly Cloudy
2:34 AM 30.2 °F 19.3 °F 26.6 °F 86% 29.70 in 6.0 mi SSE 15.0 mph 23.0 mph N/A   Overcast
2:53 AM 30.9 °F 20.2 °F 28.0 °F 89% 29.71 in 5.0 mi SSE 15.0 mph - N/A   Overcast
3:19 AM 30.2 °F 19.3 °F 30.2 °F 100% 29.66 in 2.5 mi SSE 15.0 mph 20.7 mph N/A   Overcast
3:50 AM 33.8 °F 22.5 °F 32.0 °F 93% 29.63 in 1.8 mi SSE 19.6 mph 25.3 mph N/A   Overcast
3:53 AM 33.1 °F 22.2 °F 32.0 °F 96% 29.66 in 1.8 mi SSE 17.3 mph 25.3 mph N/A   Overcast
4:09 AM 33.8 °F 23.2 °F 33.8 °F 100% 29.62 in 1.5 mi SSE 17.3 mph 26.5 mph N/A   Overcast
4:24 AM 33.8 °F 22.8 °F 33.8 °F 100% 29.61 in 1.2 mi SSE 18.4 mph 24.2 mph N/A   Overcast
4:53 AM 35.1 °F 24.5 °F 34.0 °F 96% 29.61 in 1.2 mi SSE 18.4 mph 26.5 mph N/A   Overcast
5:13 AM 35.6 °F 24.8 °F 35.6 °F 100% 29.58 in 1.5 mi SSE 19.6 mph 24.2 mph N/A   Overcast
5:53 AM 37.9 °F 27.9 °F 37.0 °F 97% 29.58 in 1.5 mi SSE 19.6 mph - N/A   Overcast
6:53 AM 39.0 °F 29.0 °F 37.9 °F 96% 29.56 in 2.5 mi South 20.7 mph 28.8 mph N/A   Overcast
7:07 AM 39.2 °F 29.3 °F 39.2 °F 100% 29.53 in 3.0 mi South 20.7 mph 28.8 mph N/A   Overcast
7:53 AM 39.9 °F 30.0 °F 37.9 °F 93% 29.55 in 3.0 mi South 21.9 mph - N/A   Overcast
8:02 AM 39.2 °F 29.8 °F 37.4 °F 93% 29.52 in 2.0 mi South 18.4 mph 26.5 mph N/A   Overcast
8:16 AM 39.2 °F 29.6 °F 37.4 °F 93% 29.51 in 2.5 mi South 19.6 mph 25.3 mph N/A   Overcast
8:41 AM 39.2 °F 30.5 °F 37.4 °F 93% 29.53 in 3.0 mi South 16.1 mph 25.3 mph N/A   Overcast
8:53 AM 41.0 °F 32.2 °F 39.0 °F 93% 29.55 in 3.0 mi South 18.4 mph - N/A   Overcast
9:22 AM 42.8 °F 34.5 °F 39.2 °F 87% 29.51 in 4.0 mi South 18.4 mph - N/A   Overcast
10:53 AM 48.0 °F - 42.1 °F 80% 29.50 in 6.0 mi South 19.6 mph 35.7 mph N/A   Haze
11:00 AM 48.2 °F - 42.8 °F 82% 29.49 in 6.0 mi South 18.4 mph 26.5 mph N/A   Haze
11:53 AM 50.0 °F - 43.0 °F 77% 29.49 in 8.0 mi South 18.4 mph 28.8 mph N/A   Overcast
12:53 PM 52.0 °F - 43.0 °F 71% 29.45 in 8.0 mi South 17.3 mph 25.3 mph N/A   Overcast
1:29 PM 53.6 °F - 44.6 °F 72% 29.39 in 8.0 mi South 19.6 mph 28.8 mph N/A   Overcast
1:49 PM 53.6 °F - 44.6 °F 72% 29.38 in 8.0 mi South 19.6 mph 25.3 mph N/A   Overcast
3:10 PM 57.2 °F - 46.4 °F 67% 29.35 in 8.0 mi SSW 16.1 mph 25.3 mph N/A   Overcast
3:53 PM 57.0 °F - 46.0 °F 67% 29.37 in 8.0 mi SSW 8.1 mph 17.3 mph N/A   Overcast
4:53 PM 57.0 °F - 45.0 °F 64% 29.39 in 9.0 mi SW 5.8 mph - N/A   Mostly Cloudy
6:44 PM 51.8 °F - 46.4 °F 82% 29.39 in 4.0 mi SSW 11.5 mph 25.3 mph 0.00 in Rain , Thunderstorm Light Thunderstorms and Rain
6:53 PM 53.1 °F - 44.1 °F 71% 29.41 in 4.0 mi SW 18.4 mph 33.4 mph 0.00 in Rain , Thunderstorm Thunderstorms and Rain
7:22 PM 51.8 °F - 42.8 °F 71% 29.39 in 10.0 mi West 5.8 mph 17.3 mph N/A Thunderstorm Mostly Cloudy
7:30 PM 50.0 °F - 42.8 °F 76% 29.39 in 10.0 mi West 3.5 mph - N/A   Scattered Clouds
7:53 PM 48.9 °F - 42.1 °F 77% 29.39 in 10.0 mi West 6.9 mph - N/A   Clear
8:53 PM 43.0 °F 36.8 °F 37.0 °F 80% 29.42 in 8.0 mi NW 11.5 mph 24.2 mph N/A   Partly Cloudy
9:53 PM 41.0 °F 32.2 °F 35.1 °F 79% 29.46 in 8.0 mi NW 18.4 mph 28.8 mph N/A   Overcast
10:03 PM 41.0 °F 31.6 °F 35.6 °F 81% 29.46 in 8.0 mi NW 20.7 mph 29.9 mph N/A   Overcast
10:53 PM 39.0 °F 31.0 °F 32.0 °F 76% 29.51 in 8.0 mi NW 13.8 mph - N/A   Overcast
11:43 PM 35.6 °F 25.5 °F 26.6 °F 70% 29.55 in 9.0 mi WNW 17.3 mph 24.2 mph N/A   Overcast
11:53 PM 36.0 °F 28.5 °F 27.0 °F 70% 29.57 in 9.0 mi West 10.4 mph 20.7 mph N/A   Overcast